This is the latest recevied weather packets stored in our database for station/object KD7JB. If no packets are shown the sender has not sent any weather packets the latest 10 day(s).
| Time | Temp. | Humidity | Pressure | Rain* | Wind** | Luminosity | Snow |
|---|---|---|---|---|---|---|---|
| 1777537396 | 9.44° C | 64% | 1183.7 hPa | 0 mm | - | 0 W/m² | - |
| 1777537092 | 8.89° C | 65% | 1183.7 hPa | 0 mm | - | 0 W/m² | - |
| 1777536789 | 8.89° C | 65% | 1183.7 hPa | 0 mm | - | 0 W/m² | - |
| 1777536487 | 8.89° C | 65% | 1183.6 hPa | 0 mm | - | 0 W/m² | - |
| 1777536182 | 8.89° C | 64% | 1183.7 hPa | 0 mm | - | 0 W/m² | - |
| 1777535879 | 9.44° C | 63% | 1183.8 hPa | 0 mm | - | 0 W/m² | - |
| 1777535575 | 9.44° C | 62% | 1183.7 hPa | 0 mm | - | 0 W/m² | - |
| 1777535272 | 9.44° C | 62% | 1183.6 hPa | 0 mm | - | 0 W/m² | - |
| 1777534969 | 8.89° C | 62% | 1183.8 hPa | 0 mm | - | 0 W/m² | - |
| 1777534665 | 8.89° C | 63% | 1183.6 hPa | 0 mm | - | 0 W/m² | - |
| 1777534363 | 8.89° C | 60% | 1183.6 hPa | 0 mm | - | 0 W/m² | - |
| 1777534061 | 8.89° C | 60% | 1183.7 hPa | 0 mm | - | 0 W/m² | - |
| 1777533758 | 9.44° C | 57% | 1183.6 hPa | 0 mm | - | 0 W/m² | - |
| 1777533453 | 9.44° C | 56% | 1183.7 hPa | 0 mm | - | 0 W/m² | - |
| 1777533149 | 10° C | 55% | 1183.6 hPa | 0 mm | - | 0 W/m² | - |
| 1777532848 | 10.56° C | 53% | 1183.6 hPa | 0 mm | - | 0 W/m² | - |
| 1777532544 | 10.56° C | 52% | 1183.5 hPa | 0 mm | - | 0 W/m² | - |
| 1777532240 | 11.11° C | 52% | 1183.5 hPa | 0 mm | - | 0 W/m² | - |
| 1777531937 | 11.11° C | 53% | 1183.6 hPa | 0 mm | - | 0 W/m² | - |
| 1777531633 | 10.56° C | 54% | 1183.6 hPa | 0 mm | - | 0 W/m² | - |
| 1777531330 | 10.56° C | 56% | 1183.5 hPa | 0 mm | - | 0 W/m² | - |
| 1777531028 | 10.56° C | 58% | 1183.7 hPa | 0 mm | - | 0 W/m² | - |
| 1777530725 | 10.56° C | 58% | 1183.6 hPa | 0 mm | - | 0 W/m² | - |
| 1777530423 | 10° C | 59% | 1183.5 hPa | 0 mm | - | 0 W/m² | - |
| 1777530118 | 10° C | 61% | 1183.5 hPa | 0 mm | - | 0 W/m² | - |
* Rain latest hour (hover to see other rain measurements)
** Current wind speed in m/s (hover to see current wind gust speed)